sat.trackr.live / text

‹ back to catalog

STARLINK-5476

NORAD 57258 · 2023-094AS

PAYLOAD ACTIVE UNKNOWN

§ Identity

Operator
Country
US
Launch date
2023-07-07
Launch site
AFWTR
Launch vehicle
Mass (kg)
RCS (m²)

Purposes: comms

External: N2YO · Heavens-Above · Gunter

§ Orbital elements

Epoch: 2026-05-24T21:01:18.062400Z

Period
94.27 min
Inclination
43.0021°
Eccentricity
0.0001282
Mean motion
15.27578966 rev/d
Perigee alt
482.2 km
Apogee alt
483.9 km
Semi-major
6,861.2 km
B*
9.3596e-6
RAAN
309.4515°
Arg perigee
261.2012°
Mean anomaly
98.8695°
Rev number
15,889

§ Raw data

STARLINK-54761 57258U 23094AS  26144.87590350 -.00000005  00000+0  93596-5 0  99912 57258  43.0021 309.4515 0001282 261.2012  98.8695 15.27578966158895

JSON: /api/v1/satellites/57258 · /tle

For live sub-satellite position, see the globe view (requires WebGL).

§ Visibility from observer

Set your observer location to see the next 7 days of passes ≥ 10°. The values pass through the URL so the page stays shareable.

No JS? Fill the form by hand. The geolocation button needs JavaScript.